     2.10           OBSERVATION DATA    G (GPS)             RINEX VERSION / TYPE
teqc 2002Apr3 Duncan Agnew 20050511 23:58:18UTC             PGM / RUN BY / DATE
OSX 5.3|G3|cc|OSX 5.3+|G3+                                  COMMENT
BIT 2 OF LLI FLAGS DATA COLLECTED UNDER A/S CONDITION       COMMENT
AS MON 97                                                   MARKER NAME
1722                                                        MARKER NUMBER
Dave Beltran Nolte Engineering                              OBSERVER / AGENCY
220331722 TRIMBLE 5700 NP 2.01 / SP 2.01                    REC # / TYPE / VERS
12582749 TRM41249.00                                        ANT # / TYPE
 -2335517.0000 -4809769.0000  3465607.0000                  APPROX POSITION XYZ
        2.0000        0.0000        0.0000                  ANTENNA: DELTA H/E/N
     1     1                                                WAVELENGTH FACT L1/2
     7    C1    L1    L2    P1    P2    S1    S2            # / TYPES OF OBSERV
SNR is mapped to RINEX snr flag value [1-9]                 COMMENT
L1: 3 -> 1; 8 -> 5; 40 -> 9                                 COMMENT
L2: 1 -> 1; 5 -> 5; 60 -> 9                                 COMMENT
  2004     6    28    21    40    0.0000000     GPS         TIME OF FIRST OBS
                                                            END OF HEADER
 04  6 28 21 40  0.0000000  0  5G 1G11G14G20G25
  23120215.3834    -406381.52359   -295764.26657                  23120216.4264
        42.5004         28.5004
  21828213.4694    -153203.75459   -114058.71957                  21828211.9844
        51.0004         36.2504
  23512526.6254      -4933.91859     -8217.36357                  23512526.4884
        46.0004         27.5004
  22667747.9454    -492818.85259   -359069.69557                  22667747.5084
        46.2504         32.0004
  20736212.5164    -129284.15259    -96975.96158                  20736211.3714
        50.5004         41.5004
 04  6 28 21 40 10.0000000  0  5G 1G11G14G20G25
  23111999.9064    -449554.50849   -329405.53947                  23112000.9414
        43.5004         27.5004
  21825157.4534    -169262.40249   -126571.96147                  21825156.1764
        50.7504         35.7504
  23512404.7894      -5573.94549     -8716.11746                  23512405.0664
        45.7504         24.5004
  22657762.0864    -545292.82849   -399958.49647                  22657762.3404
        46.5004         31.7504
  20733633.7504    -142836.82849   -107536.49248                  20733632.0474
        51.0004         41.0004
 04  6 28 21 40 20.0000000  0  5G 1G11G14G20G25
  23103793.6334    -492681.23049   -363010.75447                  23103793.8094
        44.5004         29.0004
  21822117.9064    -185234.96149   -139018.11747                  21822116.9964
        51.0004         35.7504
  23512288.9614      -6182.28949     -9190.17247                  23512288.6024
        45.5004         26.7504
  22647785.2034    -597723.39849   -440813.48047                  22647784.5784
        46.2504         30.5004
  20731069.7814    -156308.61749   -118033.99648                  20731068.7504
        51.0004         40.7504
 04  6 28 21 40 30.0000000  0  5G 1G11G14G20G25
  23095597.0704    -535754.37149   -396574.21147                  23095597.9344
        44.5004         29.0004
  21819096.0474    -201114.15249   -151391.52047                  21819095.1054
        51.2504         34.7504
  23512180.6564      -6751.67649     -9633.85547                  23512180.2194
        45.5004         26.7504
  22637817.4454    -650103.13749   -481628.85247                  22637816.8874
        45.7504         31.0004
  20728523.1414    -169692.30949   -128462.84048                  20728521.7934
        51.5004         40.5004
 04  6 28 21 40 40.0000000  0  5G 1G11G14G20G25
  23087408.4144    -578784.54749   -430104.21947                  23087409.6334
        43.2504         29.5004
  21816090.3524    -216910.60249   -163700.46147                  21816089.3404
        50.7504         36.2504
  23512077.7734      -7292.69949    -10055.46147                  23512077.1644
        45.0004         27.5004
  22627857.7344    -702442.62949   -522412.87547                  22627856.8794
        45.5004         31.2504
  20725991.0634    -182998.55549   -138831.35948                  20725989.5434
        51.0004         41.0004
 04  6 28 21 40 50.0000000  0  5G 1G11G14G20G25
  23079227.1174    -621776.62549   -463604.51647                  23079228.1804
        43.7504         28.2504
  21813099.2584    -232629.25049   -175948.76247                  21813097.7704
        50.7504         35.5004
  23511979.2734      -7810.20349    -10458.72347                  23511978.5044
        45.2504         26.2504
  22617904.8054    -754746.62949   -563169.23047                  22617903.7114
        45.2504         31.0004
  20723472.8524    -196232.28949   -149143.35948                  20723471.4694
        50.7504         40.7504
 04  6 28 21 41  0.0000000  0  5G 1G11G14G20G25
  23071053.4064    -664730.33649   -497074.93747                  23071054.2274
        43.0004         29.0004
  21810122.6884    -248269.85249   -188136.26647                  21810121.7934
        50.7504         36.0004
  23511885.1724      -8303.93449    -10843.48847                  23511885.1214
        44.7504         26.5004
  22607958.4844    -807014.73849   -603897.62947                  22607957.4384
        46.5004         31.2504
  20720968.3054    -209393.22349   -159398.64548                  20720966.9264
        50.7504         41.2504
 04  6 28 21 41 10.0000000  0  5G 1G11G14G20G25
  23062887.1954    -707645.87149   -530515.59447                  23062888.0474
        43.7504         29.7504
  21807161.4924    -263832.63349   -200263.11747                  21807160.1724
        50.7504         36.2504
  23511796.3834      -8774.08649    -11209.85247                  23511795.3134
        45.5004         27.5004
  22598018.5394    -859247.14149   -644598.19547                  22598017.5004
        46.2504         31.5004
  20718477.8444    -222481.70749   -169597.46948                  20718476.1804
        50.7504         41.0004
 04  6 28 21 41 20.0000000  0  6G 1G11G14G16G20G25
  23054727.5704    -750524.59049   -563927.55947                  23054728.0084
        43.7504         29.0004
  21804214.6174    -279318.96549   -212330.39147                  21804212.8714
        51.0004         35.5004
  23511710.8134      -9222.01249    -11558.90246                  23511710.3874
        45.2504         25.0004
  24342217.5704    -119533.34859    -83162.58256                  24342218.7504
        41.5004         22.0004
  22588085.9224    -911445.16449   -685271.97747                  22588084.8404
        46.5004         30.7504
  20716000.7114    -235499.10949   -179740.90648                  20715999.2114
        51.0004         40.5004
 04  6 28 21 41 30.0000000  0  6G 1G11G14G16G20G25
  23046574.5784    -793370.72349   -597314.13747                  23046575.0704
        44.5004         29.7504
  21801281.3444    -294733.12149   -224341.43447                  21801280.3524
        50.2504         35.7504
  23511629.4844      -9651.89849    -11893.89147                  23511628.5944
        45.5004         25.7504
  24331975.9694    -173356.30949   -125102.49246                  24331976.2974
        42.0004         21.7504
  22578158.7734    -963612.82449   -725922.09047                  22578158.0824
        45.7504         30.5004
  20713536.3524    -248449.68449   -189832.26648                  20713534.7624
        50.2504         40.5004
 04  6 28 21 41 40.0000000  0  6G 1G11G14G16G20G25
  23038426.6094    -836185.53949   -630676.32047                  23038427.4064
        43.5004         28.7504
  21798361.3524    -310076.47349   -236297.29747                  21798360.1684
        50.7504         36.0004
  23511549.7114     -10065.13749    -12215.91446                  23511550.2114
        44.2504         25.5004
  24321735.1564    -227168.39149   -167033.90246                  24321736.7774
        42.5004         21.7504
  22568236.6564   -1015751.43449   -766549.56247                  22568236.2894
        45.7504         31.2504
  20711084.4454    -261334.84049   -199872.64548                  20711083.0204
        50.0004         40.2504
 04  6 28 21 41 50.0000000  0  6G 1G11G14G16G20G25
  23030284.7034    -878972.16049   -664016.52047                  23030285.8594
        44.0004         28.5004
  21795454.6954    -325352.06249   -248200.36347                  21795453.4534
        51.0004         36.0004
  23511474.1254     -10464.64849    -12527.24647                  23511473.7734
        44.0004         26.2504
  24311496.5234    -280972.48449   -208959.12946                  24311498.1954
        41.5004         22.0004
  22558320.5944   -1067863.89849   -807156.67247                  22558319.7774
        45.0004         31.5004
  20708644.1094    -274157.59849   -209864.41048                  20708642.5784
        50.0004         40.7504
 04  6 28 21 42  0.0000000  0  6G 1G11G14G16G20G25
  23022147.6174    -921733.53549   -697337.06247                  23022148.1524
        44.2504         29.2504
  21792560.1254    -340562.93449   -260053.00447                  21792558.6644
        50.5004         36.0004
  23511400.0004     -10853.54749    -12830.30547                  23511399.9024
        45.0004         26.5004
  24301258.5164    -334771.53949   -250880.40646                  24301260.6414
        40.7504         22.2504
  22548407.8834   -1119953.16049   -847745.69947                  22548407.6254
        45.5004         31.5004
  20706215.0784    -286921.03549   -219809.95348                  20706213.9574
        50.0004         40.7504
 04  6 28 21 42 10.0000000  0  6G 1G11G14G16G20G25
  23014015.1954    -964469.25449   -730637.60547                  23014015.8754
        44.0004         29.2504
  21789677.9304    -355708.78949   -271854.98847                  21789676.4224
        50.5004         36.0004
  23511328.4694     -11231.34049    -13124.70747                  23511327.4534
        44.0004         27.0004
  24291021.8364    -388564.97349   -292797.29746                  24291023.9064
        40.2504         21.7504
  22538500.2974   -1172018.74249   -888316.27047                  22538500.3094
        45.0004         32.0004
  20703797.7344    -299624.76249   -229708.96548                  20703796.7194
        50.2504         40.5004
 04  6 28 21 42 20.0000000  0  6G 1G11G14G16G20G25
  23005887.3204   -1007180.41849   -763919.01247                  23005887.9264
        42.7504         30.0004
  21786807.8134    -370790.70749   -283607.14547                  21786806.7854
        50.7504         36.5004
  23511257.8834     -11599.14849    -13411.32447                  23511257.8484
        45.0004         26.2504
  24280786.2424    -442353.68449   -334710.50846                  24280788.1134
        39.2504         22.0004
  22528596.8444   -1224061.60249   -928869.13347                  22528596.5434
        46.0004         32.0004
  20701391.2664    -312269.92249   -239562.34448                  20701389.9694
        50.5004         41.0004
 04  6 28 21 42 30.0000000  0  6G 1G11G14G16G20G25
  22997763.3984   -1049868.71149   -797182.59447                  22997764.9414
        44.2504         29.5004
  21783949.7584    -385810.35249   -295310.76247                  21783948.1644
        50.5004         36.0004
  23511189.0864     -11958.63349    -13691.46947                  23511189.5784
        44.0004         26.5004
  24270550.6954    -496139.30549   -376621.28946                  24270552.7814
        39.7504         21.0004
  22518697.5004   -1276083.34449   -969405.54747                  22518697.1644
        45.7504         32.0004
  20698996.1254    -324858.20349   -249371.39148                  20698994.8324
        50.0004         41.2504
 04  6 28 21 42 40.0000000  0  6G 1G11G14G16G20G25
  22989644.5554   -1092534.49249   -830428.64147                  22989645.7814
        43.0004         28.5004
  21781103.7034    -400768.14149   -306966.18747                  21781102.3634
        50.5004         35.7504
  23511122.3284     -12310.12949    -13965.37546                  23511122.2234
        44.0004         24.5004
  24260316.5084    -549922.02749   -418529.85246                  24260318.0824
        41.0004         22.0004
  22508802.3364   -1328084.22349  -1009925.69947                  22508801.6334
        45.2504         31.0004
  20696611.2274    -337389.99249   -259136.41848                  20696609.9654
        50.0004         41.0004
 04  6 28 21 42 50.0000000  0  6G 1G11G14G16G20G25
  22981530.1644   -1135176.61749   -863656.24647                  22981530.9224
        45.0004         29.0004
  21778268.9694    -415662.99649   -318572.57847                  21778267.9184
        50.5004         36.2504
  23511056.9924     -12652.53149    -14232.19547                  23511056.8594
        44.0004         25.7504
  24250082.0004    -603700.61349   -460435.17246                  24250084.8874
        41.2504         22.5004
  22498911.0164   -1380062.96149  -1050428.60247                  22498909.8634
        45.2504         31.0004
  20694237.8284    -349864.22749   -268856.60548                  20694236.3094
        50.0004         40.7504
 04  6 28 21 43  0.0000000  0  6G 1G11G14G16G20G25
  22973419.9694   -1177796.50849   -896866.53947                  22973420.7034
        44.5004         28.5004
  21775446.1954    -430496.28949   -330131.00047                  21775445.2774
        50.5004         35.5004
  23510994.7194     -12987.22749    -14493.00846                  23510993.6094
        43.5004         24.2504
  24239849.0554    -657476.42649   -502338.34046                  24239851.0944
        40.0004         22.0004
  22489023.7344   -1432020.97349  -1090915.35247                  22489022.5864
        45.7504         30.0004
  20691874.5864    -362282.37949   -278533.09048                  20691872.9384
        50.0004         40.0004
 04  6 28 21 43 10.0000000  0  6G 1G11G14G16G20G25
  22965313.6724   -1220395.29749   -930060.38347                  22965314.3364
        45.0004         29.5004
  21772635.3754    -445269.28149   -341642.43447                  21772634.1174
        50.2504         36.2504
  23510931.3914     -13315.33649    -14748.69146                  23510930.8364
        43.2504         25.5004
  24229616.1724    -711250.42649   -544240.08246                  24229618.0204
        40.2504         21.2504
  22479140.4224   -1483959.25449  -1131386.74647                  22479138.3954
        45.2504         31.5004
  20689521.8444    -374645.70749   -288166.85548                  20689520.2194
        49.7504         41.2504
 04  6 28 21 43 20.0000000  0  6G 1G11G14G16G20G25
  22957212.3284   -1262970.76649   -963236.05947                  22957212.8094
        43.0004         29.2504
  21769835.9534    -459979.83249   -353105.20747                  21769834.4924
        50.5004         35.5004
  23510871.0234     -13634.62549    -14997.53146                  23510870.3054
        44.5004         25.0004
  24219384.3594    -765020.34049   -586138.66846                  24219385.6564
        40.7504         21.2504
  22469260.8284   -1535875.53549  -1171840.98847                  22469258.7114
        46.0004         31.5004
  20687180.2584    -386951.97349   -297756.16048                  20687178.5084
        50.5004         41.0004
 04  6 28 21 43 30.0000000  0  6G 1G11G14G16G20G25
  22949114.7114   -1305522.68449   -996393.39547                  22949115.1334
        44.0004         30.0004
  21767048.4774    -474627.67649   -364519.13347                  21767047.2234
        50.0004         36.2504
  23510811.9064     -13944.80949    -15239.25446                  23510810.8594
        44.2504         25.0004
  24209153.2344    -818785.75449   -628033.74246                  24209153.8134
        39.0004         20.5004
  22459385.5084   -1587769.43749  -1212277.79747                  22459383.6524
        46.7504         31.5004
  20684849.2664    -399201.00049   -307300.87148                  20684847.4414
        50.2504         42.0004
 04  6 28 21 43 40.0000000  0  6G 1G11G14G16G20G25
  22941021.1024   -1348055.28149  -1029535.66447                  22941021.2774
        43.7504         28.7504
  21764272.1094    -489217.19549   -375887.59447                  21764271.2854
        50.0004         36.5004
  23510753.7194     -14250.24649    -15477.26646                  23510753.1134
        43.2504         23.0004
  24198921.5004    -872550.79349   -669928.54746                  24198922.5394
        40.2504         21.0004
  22449514.2034   -1639645.23049  -1252700.48047                  22449511.8634
        45.2504         32.0004
  20682528.2814    -411397.14849   -316804.35948                  20682526.9024
        50.0004         42.2504
 04  6 28 21 43 50.0000000  0  6G 1G11G14G16G20G25
  22932931.3834   -1390566.09049  -1062660.92647                  22932932.5164
        44.0004         28.7504
  21761507.4144    -503745.93049   -387208.68747                  21761506.3204
        50.0004         36.5004
  23510696.8834     -14548.34449    -15709.57446                  23510696.2034
        43.0004         23.0004
  24188691.6724    -926312.80149   -711820.92246                  24188692.4064
        40.2504         21.0004
  22439646.4614   -1691500.27049  -1293106.98447                  22439644.8554
        46.5004         30.7504
  20680217.9694    -423537.87949   -326264.66848                  20680216.6644
        50.5004         41.2504
 04  6 28 21 44  0.0000000  0  6G 1G11G14G16G20G25
  22924845.7734   -1433055.16449  -1095769.27747                  22924846.2624
        43.0004         28.5004
  21758754.2424    -518213.93449   -398482.46947                  21758753.0984
        50.2504         36.0004
  23510641.8524     -14839.23049    -15936.26646                  23510640.7274
        43.2504         24.2504
  24178461.1724    -980071.80949   -753711.02346                  24178461.8714
        41.0004         21.0004
  22429782.6254   -1743334.41849  -1333497.21947                  22429781.3594
        45.7504         33.0004
  20677918.2814    -435623.39549   -335681.95748                  20677916.7704
        50.2504         42.0004
 04  6 28 21 44 10.0000000  0  6G 1G11G14G16G20G25
  22916763.7814   -1475524.98449  -1128862.61347                  22916764.4184
        44.5004         27.0004
  21756012.1094    -532623.65249   -409710.82447                  21756010.8094
        49.5004         35.5004
  23510586.9454     -15125.35249    -16159.22346                  23510586.9144
        43.2504         24.0004
  24168232.1334   -1033830.16849   -795600.58246                  24168232.1564
        42.0004         21.0004
  22419922.5234   -1795150.26649  -1373873.18747                  22419920.8484
        46.5004         30.5004
  20675628.5394    -447656.21949   -345058.17648                  20675627.0634
        50.7504         40.7504
 04  6 28 21 44 20.0000000  0  6G 1G11G14G16G20G25
  22908685.4844   -1517976.31649  -1161941.55547                  22908686.5744
        44.2504         28.5004
  21753280.8524    -546975.90649   -420894.41447                  21753279.3874
        50.0004         36.5004
  23510533.3204     -15407.44549    -16379.07046                  23510532.9774
        42.5004         25.0004
  24158002.6884   -1087588.36349   -837490.06646                  24158002.4144
        41.2504         21.7504
  22410065.2664   -1846948.35949  -1414235.32847                  22410064.1484
        47.2504         32.2504
  20673348.5634    -459637.12149   -354393.95748                  20673347.2344
        51.5004         41.5004
 04  6 28 21 44 30.0000000  0  6G 1G11G14G16G20G25
  22900611.2734   -1560408.52749  -1195005.60247                  22900611.6914
        44.5004         29.2504
  21750561.1094    -561270.12149   -432032.77047                  21750559.6914
        49.5004         36.0004
  23510480.3914     -15684.92649    -16595.32046                  23510480.3594
        42.5004         24.2504
  24147773.1724   -1141345.86749   -879378.97746                  24147772.8094
        40.0004         22.0004
  22400212.2584   -1898728.01649  -1454583.09447                  22400210.9654
        47.5004         31.7504
  20671078.5004    -471565.49649   -363688.80148                  20671077.1454
        50.5004         41.2504
 04  6 28 21 44 40.0000000  0  6G 1G11G14G16G20G25
  22892540.4224   -1602821.85949  -1228054.93447                  22892540.7584
        44.0004         29.7504
  21747851.6954    -575506.64149   -443126.18047                  21747850.5744
        49.5004         36.2504
  23510428.6804     -15957.98849    -16808.10946                  23510427.7424
        43.5004         24.5004
  24137543.3594   -1195102.75449   -921267.43746                  24137542.8714
        40.5004         22.7504
  22390362.4844   -1950489.39549  -1494916.63347                  22390361.0004
        47.5004         33.0004
  20668818.7664    -483441.69549   -372942.99648                  20668817.3284
        51.5004         42.5004
 04  6 28 21 44 50.0000000  0  6G 1G11G14G16G20G25
  22884473.1724   -1645214.41849  -1261088.08647                  22884473.6844
        43.5004         29.2504
  21745154.2734    -589683.49649   -454173.09047                  21745152.9964
        50.0004         36.5004
  23510378.0084     -16224.72749    -17015.98446                  23510377.8754
        43.2504         22.7504
  24127314.0314   -1248856.92649   -963153.73846                  24127313.8984
        40.2504         22.0004
  22380516.4844   -2002230.46549  -1535234.32847                  22380514.9064
        46.7504         32.7504
  20666569.0004    -495263.88349   -382155.08648                  20666567.3874
        51.2504         42.5004
 04  6 28 21 45  0.0000000  0  6G 1G11G14G16G20G25
  22876410.9304   -1687582.38349  -1294102.07047                  22876411.2424
        43.0004         28.5004
  21742468.3364    -603797.00049   -465170.62147                  21742467.2544
        50.0004         35.5004
  23510329.3524     -16481.34849    -17215.96146                  23510329.1054
        43.2504         24.5004
  24117086.0004   -1302604.48449  -1005034.90646                  24117086.1844
        40.5004         22.7504
  22370675.0164   -2053947.39149  -1575533.21547                  22370673.1134
        46.5004         31.5004
  20664330.5784    -507028.25049   -391322.12548                  20664328.6884
        50.5004         41.5004
 04  6 28 21 45 10.0000000  0  6G 1G11G14G16G20G25
  22868352.6804   -1729930.01249  -1327100.19947                  22868352.9024
        44.5004         29.0004
  21739794.0944    -617851.44149   -476122.14147                  21739792.8794
        50.2504         35.5004
  23510281.6254     -16732.10249    -17411.37546                  23510280.7424
        43.0004         24.5004
  24106858.6414   -1356349.57049  -1046914.13746                  24106859.4774
        40.7504         22.2504
  22360837.4774   -2105644.29349  -1615816.50847                  22360835.9774
        47.0004         31.2504
  20662101.8984    -518739.12549   -400447.49248                  20662100.3874
        52.0004         42.2504
 04  6 28 21 45 20.0000000  0  6G 1G11G14G16G20G25
  22860298.2894   -1772254.00849  -1360079.91847                  22860298.8364
        44.0004         29.5004
  21737131.2584    -631843.61349   -487025.13747                  21737129.8834
        49.7504         35.0004
  23510235.7814     -16973.71149    -17599.65246                  23510234.6724
        43.0004         23.2504
  24096632.1414   -1410088.83249  -1088788.84046                  24096633.4534
        39.7504         22.5004
  22351004.2974   -2157317.84449  -1656081.59847                  22351003.0864
        46.7504         31.5004
  20659884.2424    -530393.29749   -409528.66048                  20659882.8054
        51.5004         41.0004
 04  6 28 21 45 30.0000000  0  6G 1G11G14G16G20G25
  22852248.3834   -1814556.96949  -1393043.26247                  22852248.8874
        43.5004         29.5004
  21734479.9454    -645776.12549   -497881.65247                  21734478.6414
        49.5004         35.5004
  23510191.2274     -17208.71149    -17782.79746                  23510189.5984
        43.5004         22.7504
  24086406.1644   -1463824.69149  -1130660.89846                  24086407.6994
        40.0004         22.0004
  22341174.8444   -2208970.52749  -1696330.43447                  22341173.7464
        45.5004         31.7504
  20657676.3834    -541993.44949   -418567.75048                  20657675.3014
        51.0004         41.5004
 04  6 28 21 45 40.0000000  0  6G 1G11G14G16G20G25
  22844202.3284   -1856839.20749  -1425990.43447                  22844203.0044
        45.0004         30.2504
  21731839.9774    -659649.32849   -508691.94947                  21731838.8484
        49.5004         35.5004
  23510147.1334     -17437.43049    -17961.03146                  23510146.2664
        43.0004         22.7504
  24076181.4384   -1517557.39149  -1172530.47346                  24076182.6134
        41.0004         21.5004
  22331349.9384   -2260602.55149  -1736563.16847                  22331348.5434
        46.5004         31.5004
  20655479.9064    -553539.93049   -427565.01248                  20655478.1844
        51.0004         41.7504
 04  6 28 21 45 50.0000000  0  6G 1G11G14G16G20G25
  22836160.2894   -1899100.08249  -1458920.96947                  22836160.8674
        45.5004         29.5004
  21729211.3594    -673462.62149   -519455.56647                  21729210.1254
        49.5004         36.2504
  23510105.5704     -17659.18449    -18133.85546                  23510104.2304
        43.5004         24.0004
  24065956.2894   -1571286.11749  -1214396.94546                  24065958.0664
        38.7504         22.0004
  22321528.6174   -2312213.20349  -1776779.25047                  22321526.9384
        47.0004         31.7504
  20653292.7894    -565032.09049   -436519.95348                  20653291.3524
        52.0004         42.2504
 04  6 28 21 46  0.0000000  0  6G 1G11G14G16G20G25
  22828122.0314   -1941339.90649  -1491835.10947                  22828123.0354
        45.0004         29.7504
  21726594.2504    -687216.35549   -530172.77747                  21726593.0704
        50.0004         36.0004
  23510064.5944     -17874.32049    -18301.52046                  23510062.9024
        44.0004         25.5004
  24055732.5164   -1625011.02049  -1256260.44546                  24055734.2464
        38.5004         21.0004
  22311711.4384   -2363802.64149  -1816978.79747                  22311709.5354
        45.7504         31.7504
  20651116.0944    -576470.31249   -445432.85548                  20651114.6214
        51.2504         42.0004
 04  6 28 21 46 10.0000000  0  6G 1G11G14G16G20G25
  22820088.3984   -1983558.28549  -1524732.51647                  22820088.8284
        45.0004         29.5004
  21723988.3524    -700910.25449   -540843.34847                  21723987.1884
        50.0004         36.0004
  23510024.8834     -18082.47749    -18463.74646                  23510023.7584
        44.5004         25.5004
  24045510.0164   -1678731.64149  -1298120.59846                  24045511.5234
        39.2504         20.5004
  22301898.2274   -2415370.47349  -1857161.50847                  22301896.2934
        45.0004         31.5004
  20648949.8444    -587854.19949   -454303.41448                  20648948.3054
        51.5004         41.7504
 04  6 28 21 46 20.0000000  0  6G 1G11G14G16G20G25
  22812058.5234   -2025755.72749  -1557613.62547                  22812059.2074
        45.2504         29.5004
  21721393.7424    -714544.79749   -551467.67647                  21721392.6334
        50.0004         36.0004
  23509987.0704     -18284.12149    -18620.86746                  23509985.7544
        44.5004         25.5004
  24035288.2034   -1732448.33249  -1339977.73046                  24035289.5124
        39.5004         21.5004
  22292089.1414   -2466917.07849  -1897327.67647                  22292087.2034
        45.7504         31.5004
  20646793.7734    -599184.40249   -463132.14848                  20646792.3914
        51.2504         41.0004
 04  6 28 21 46 30.0000000  0  6G 1G11G14G16G20G25
  22804032.6804   -2067930.61749  -1590477.14547                  22804033.6884
        45.5004         29.2504
  21718810.8594    -728118.40649   -562044.51247                  21718809.6954
        50.0004         35.5004
  23509950.1644     -18477.60549    -18771.66046                  23509948.7304
        45.5004         25.5004
  24025068.0944   -1786159.37949  -1381830.43046                  24025069.0234
        41.0004         22.0004
  22282284.3594   -2518440.71549  -1937475.95347                  22282282.8954
        45.0004         31.2504
  20644648.0864    -610459.35949   -471917.83648                  20644646.5474
        51.0004         41.0004
 04  6 28 21 46 40.0000000  0  6G 1G11G14G16G20G25
  22796011.2114   -2110084.74249  -1623324.50847                  22796012.0274
        44.7504         29.0004
  21716239.1954    -741632.91449   -572575.31247                  21716237.8674
        49.5004         35.2504
  23509914.4304     -18664.75449    -18917.51246                  23509913.4804
        44.5004         25.2504
  24014847.2194   -1839866.50049  -1423680.08646                  24014848.6024
        39.2504         22.2504
  22272484.1174   -2569943.12949  -1977607.70347                  22272481.9184
        45.2504         31.0004
  20642512.7274    -621680.89849   -480661.89848                  20642511.0274
        51.2504         41.5004
 04  6 28 21 46 50.0000000  0  6G 1G11G14G16G20G25
  22787993.7504   -2152217.09849  -1656154.88747                  22787994.4304
        45.7504         30.2504
  21713678.6884    -755087.28949   -583059.25047                  21713677.6454
        49.7504         35.5004
  23509879.8204     -18844.44949    -19057.54746                  23509878.5984
        45.0004         23.0004
  24004628.1414   -1893568.45349  -1465525.71546                  24004629.6294
        40.0004         22.2504
  22262687.6334   -2621423.18049  -2017722.02347                  22262685.7384
        46.0004         30.7504
  20640387.6954    -632847.96549   -489363.50448                  20640386.0274
        51.0004         41.5004
 04  6 28 21 47  0.0000000  0  6G 1G11G14G16G20G25
  22779980.1024   -2194327.08249  -1688967.84847                  22779981.2384
        45.5004         29.7504
  21711130.0474    -768481.05149   -593495.95747                  21711128.9804
        50.0004         36.2504
  23509847.6174     -19016.26249    -19191.44147                  23509846.3674
        44.7504         26.0004
  23994409.8364   -1947264.59049  -1507366.78946                  23994411.5044
        40.0004         22.2504
  22252895.6804   -2672880.23849  -2057818.42247                  22252893.9344
        45.0004         30.7504
  20638273.1804    -643960.12149   -498022.33648                  20638271.8204
        50.5004         41.0004
 04  6 28 21 47 10.0000000  0  6G 1G11G14G16G20G25
  22771971.2274   -2236416.16049  -1721764.51647                  22771971.2504
        45.5004         30.0004
  21708592.5704    -781815.76649   -603886.66447                  21708591.3164
        49.5004         37.0004
  23509815.5784     -19181.53549    -19320.24647                  23509814.5164
        44.5004         26.0004
  23984193.9224   -2000956.18049  -1549204.37146                  23984194.5004
        41.0004         21.5004
  22243108.0314   -2724315.64149  -2097897.95747                  22243106.5394
        44.5004         31.2504
  20636168.4304    -655018.82049   -506639.51648                  20636166.9694
        50.2504         41.5004
 04  6 28 21 47 20.0000000  0  6G 1G11G14G16G20G25
  22763965.8754   -2278483.99249  -1754544.62147                  22763966.2504
        45.5004         30.2504
  21706066.5634    -795091.07049   -614231.05947                  21706065.4924
        50.5004         36.2504
  23509785.6804     -19339.86749    -19443.64547                  23509784.5594
        44.7504         26.5004
  23973977.4534   -2054642.88349  -1591038.11746                  23973977.8984
        40.7504         21.0004
  22233324.0864   -2775728.99649  -2137960.29347                  22233322.9414
        45.0004         31.5004
  20634074.7504    -666023.78149   -515214.81248                  20634073.1254
        50.7504         41.5004
 04  6 28 21 47 30.0000000  0  6G 1G11G14G16G20G25
  22755964.1334   -2320533.25849  -1787310.25847                  22755964.7274
        45.7504         29.0004
  21703550.7274    -808309.67649   -624531.27047                  21703550.2624
        50.2504         35.5004
  23509757.0634     -19494.05149    -19563.78946                  23509754.9804
        44.0004         25.2504
  23963761.6174   -2108327.10549  -1632869.94546                  23963761.8594
        41.0004         20.7504
  22223544.3444   -2827122.82849  -2178007.41847                  22223543.1054
        45.2504         31.0004
  20631989.9614    -676977.73449   -523750.35248                  20631988.4494
        50.2504         41.2504
 04  6 28 21 47 40.0000000  0  6G 1G11G14G16G20G25
  22747966.0164   -2362562.56249  -1820060.34847                  22747966.6604
        45.7504         29.2504
  21701046.5314    -821470.32049   -634786.32847                  21701046.0864
        50.2504         35.5004
  23509728.4534     -19642.57449    -19679.55146                  23509726.9574
        44.7504         24.5004
  23953546.1884   -2162007.36749  -1674698.67646                  23953546.0044
        39.7504         21.7504
  22213767.8984   -2878495.63749  -2218038.16447                  22213767.5274
        43.5004         31.2504
  20629915.6024    -687879.38749   -532245.15248                  20629913.7544
        50.2504         40.7504
 04  6 28 21 47 50.0000000  0  6G 1G11G14G16G20G25
  22739972.0314   -2404571.86749  -1852794.84447                  22739972.3834
        46.0004         29.2504
  21698553.3674    -834572.95749   -644996.19147                  21698551.8794
        50.0004         36.2504
  23509701.1954     -19785.44549    -19790.89846                  23509699.5474
        43.5004         25.2504
  23943331.4224   -2215683.61749  -1716524.29346                  23943332.1844
        40.0004         21.5004
  22203996.1094   -2929847.33249  -2258052.46147                  22203995.5124
        45.2504         31.5004
  20627850.8524    -698728.77049   -540699.22348                  20627849.5474
        50.5004         40.2504
 04  6 28 21 48  0.0000000  0  6G 1G11G14G16G20G25
  22731981.5394   -2446562.25849  -1885514.60947                  22731982.3984
        44.7504         29.5004
  21696070.6564    -847618.60949   -655161.64547                  21696069.7424
        51.0004         36.7504
  23509674.7584     -19923.75449    -19898.68747                  23509673.5314
        43.5004         26.0004
  23933118.1254   -2269356.77349  -1758347.46146                  23933118.4454
        40.7504         22.5004
  22194227.9844   -2981178.94949  -2298051.10547                  22194227.4144
        44.2504         32.5004
  20625795.9924    -709526.99249   -549113.42248                  20625794.7234
        50.5004         40.5004
 04  6 28 21 48  9.9990000  0  6G 1G11G14G16G20G25
  22723995.6054   -2488527.59049  -1918214.85947                  22723996.3394
        45.5004         30.0004
  21693599.5034    -860604.19949   -665280.29747                  21693598.9564
        50.5004         36.5004
  23509649.7224     -20055.51649    -20001.37146                  23509648.5224
        44.0004         25.5004
  23922906.3704   -2323019.43749  -1800162.48046                  23922906.6904
        41.2504         22.2504
  22184464.8474   -3032483.27749  -2338028.48447                  22184464.8864
        45.5004         31.7504
  20623751.5654    -720271.02349   -557485.39848                  20623749.8864
        50.7504         40.7504
 04  6 28 21 48 19.9990000  0  6G 1G11G14G16G20G25
  22716013.0114   -2530476.93449  -1950902.64147                  22716014.0304
        46.5004         30.5004
  21691139.0814    -873532.95749   -675354.67247                  21691138.4644
        50.2504         37.5004
  23509626.1904     -20181.39149    -20099.48447                  23509624.9134
        43.5004         27.5004
  23912694.2144   -2376682.68449  -1841977.97346                  23912695.1244
        41.2504         21.7504
  22174705.1754   -3083771.10549  -2377993.02747                  22174705.1634
        45.0004         32.5004
  20621716.8004    -730963.71949   -565817.37948                  20621715.2694
        50.2504         41.5004
 04  6 28 21 48 29.9990000  0  6G 1G11G14G16G20G25
  22708033.7764   -2572407.16849  -1983575.52047                  22708034.4374
        45.5004         30.7504
  21688690.0424    -886404.78149   -685384.66847                  21688689.1444
        50.2504         36.2504
  23509603.1364     -20302.41849    -20193.78947                  23509602.3514
        42.7504         26.7504
  23902482.5974   -2430342.28549  -1883790.60546                  23902483.8124
        42.2504         22.5004
  22164949.4874   -3135038.35949  -2417941.51247                  22164948.6944
        44.5004         33.0004
  20619691.8394    -741605.29349   -574109.51648                  20619689.9874
        49.5004         41.2504
 04  6 28 21 48 39.9990000  0  6G 1G11G14G16G20G25
  22700059.3554   -2614316.89849  -2016232.43747                  22700059.5734
        45.2504         30.7504
  21686251.5734    -899218.34849   -695369.27347                  21686250.5894
        50.5004         35.5004
  23509580.6754     -20417.21549    -20283.26247                  23509580.7144
        41.2504         26.2504
  23892272.8004   -2483996.67249  -1925599.15246                  23892273.8314
        42.0004         22.5004
  22155197.9094   -3186283.53149  -2457872.79747                  22155197.4724
        45.7504         32.5004
  20617676.4564    -752194.31649   -582360.69948                  20617674.8624
        50.5004         40.5004
 04  6 28 21 48 49.9990000  0  6G 1G11G14G16G20G25
  22692087.3944   -2656208.02049  -2048874.84847                  22692087.9214
        45.5004         30.0004
  21683824.3084    -911975.61349   -705310.01247                  21683823.1054
        50.5004         37.0004
  23509559.7454     -20527.74249    -20369.39847                  23509559.4724
        42.5004         26.7504
  23882063.3864   -2537647.72349  -1967405.10246                  23882064.4564
        41.7504         22.5004
  22145450.4334   -3237508.42649  -2497788.29747                  22145449.4334
        45.7504         32.7504
  20615671.1754    -762732.78149   -590572.49648                  20615669.9174
        50.2504         40.2504
 04  6 28 21 48 59.9990000  0  6G 1G11G14G16G20G25
  22684119.0734   -2698081.19949  -2081503.28947                  22684119.8704
        44.0004         30.0004
  21681407.2454    -924677.19949   -715207.35247                  21681406.4054
        50.0004         35.5004
  23509539.6364     -20634.66449    -20452.74246                  23509539.2184
        42.7504         25.0004
  23871854.0504   -2591295.89849  -2009208.83646                  23871855.6554
        42.5004         22.5004
  22135706.1984   -3288713.64149  -2537688.44547                  22135705.8434
        46.0004         32.0004
  20613675.0814    -773221.39849   -598745.43448                  20613673.8944
        50.5004         39.5004
 04  6 28 21 49  9.9990000  0  6G 1G11G14G16G20G25
  22676154.8004   -2739934.05949  -2114115.89547                  22676155.2884
        45.0004         30.2504
  21679001.1754    -937320.81249   -725059.53147                  21679000.5074
        50.0004         36.7504
  23509519.7304     -20735.48049    -20531.32446                  23509520.2764
        40.5004         24.5004
  23861646.2764   -2644938.68449  -2051008.35946                  23861648.0974
        42.5004         22.0004
  22125966.4954   -3339896.67649  -2577571.32847                  22125965.4054
        47.0004         33.2504
  20611689.5814    -783657.86349   -606877.76248                  20611688.0934
        50.2504         40.5004
 04  6 28 21 49 19.9990000  0  6G 1G11G14G16G20G25
  22668193.2454   -2781770.02049  -2146715.32047                  22668193.7304
        45.2504         29.7504
  21676605.1674    -949909.97349   -734869.27747                  21676604.2534
        50.2504         35.7504
  23509501.0974     -20833.73449    -20607.90646                  23509501.2764
        42.0004         24.5004
  23851439.5114   -2698579.47749  -2092806.32046                  23851440.4724
        43.0004         22.5004
  22116230.6514   -3391060.90249  -2617439.54747                  22116229.4484
        46.5004         32.2504
  20609712.5264    -794045.61749   -614972.11348                  20609710.9094
        50.0004         40.2504
 04  6 28 21 49 29.9990000  0  6G 1G11G14G16G20G25
  22660235.4334   -2823589.44549  -2179301.87947                  22660235.9834
        45.2504         30.5004
  21674220.0734    -962445.06249   -744636.89547                  21674219.3974
        50.2504         36.0004
  23509484.1204     -20929.74249    -20682.74246                  23509483.1364
        43.0004         24.2504
  23841232.1754   -2752218.39849  -2134602.85246                  23841233.2374
        43.5004         24.0004
  22106497.3004   -3442206.58249  -2657293.32047                  22106496.2764
        47.0004         33.2504
  20607745.3004    -804385.10949   -623028.87548                  20607743.6054
        50.7504         40.2504
 04  6 28 21 49 39.9990000  0  6G 1G11G14G16G20G25
  22652280.5034   -2865392.41449  -2211875.60547                  22652280.8744
        45.0004         30.7504
  21671845.0034    -974926.27749   -754362.52747                  21671844.2494
        49.5004         36.2504
  23509465.7064     -21023.58649    -20755.89846                  23509464.8514
        42.0004         24.5004
  23831025.3944   -2805855.55149  -2176397.98046                  23831026.9054
        43.5004         24.7504
  22096768.8234   -3493333.77349  -2697132.68447                  22096767.7024
        47.2504         33.2504
  20605786.7764    -814676.52749   -631048.16048                  20605785.2334
        51.0004         40.2504
 04  6 28 21 49 49.9990000  0  6G 1G11G14G16G20G25
  22644329.4334   -2907178.16049  -2244435.89547                  22644329.6474
        45.0004         30.2504
  21669480.2924    -987352.86749   -764045.59047                  21669479.4334
        50.0004         36.0004
  23509448.0584     -21114.55149    -20826.78946                  23509447.6284
        40.5004         24.2504
  23820819.7304   -2859489.95349  -2218190.96946                  23820820.0114
        44.0004         24.5004
  22087043.0034   -3544441.59849  -2736956.94147                  22087041.6754
        47.0004         32.5004
  20603837.6204    -824919.12949   -639029.40648                  20603836.3944
        50.0004         39.7504
 04  6 28 21 49 59.9990000  0  6G 1G11G14G16G20G25
  22636380.8004   -2948945.84849  -2276982.13347                  22636381.2374
        44.0004         30.7504
  21667126.3864    -999723.96949   -773685.42247                  21667125.0774
        49.2504         36.0004
  23509431.3474     -21201.67249    -20894.68446                  23509431.2024
        41.2504         22.7504
  23810613.9724   -2913120.65249  -2259981.07046                  23810613.9764
        44.0004         23.7504
  22077321.2924   -3595529.01249  -2776765.30547                  22077320.2654
        47.5004         33.5004
  20601898.0424    -835112.09049   -646971.98048                  20601896.4254
        50.5004         39.7504
 04  6 28 21 50  9.9990000  0  6G 1G11G14G16G20G25
  22628436.1364   -2990696.50449  -2309515.09047                  22628436.5344
        44.5004         30.5004
  21664782.0114   -1012040.72349   -783282.89847                  21664781.5734
        49.5004         35.7504
  23509414.8624     -21286.02349    -20960.43046                  23509414.4724
        39.5004         22.7504
  23800409.2144   -2966748.52349  -2301768.96546                  23800408.8434
        43.7504         22.7504
  22067603.3234   -3646597.03149  -2816558.55147                  22067602.5424
        47.5004         32.5004
  20599967.6364    -845256.44149   -654876.66848                  20599966.0034
        51.0004         39.5004
 04  6 28 21 50 19.9990000  0  6G 1G11G14G16G20G25
  22620494.6834   -3032428.34849  -2342033.39847                  22620495.4484
        44.0004         30.2504
  21662449.1514   -1024301.35949   -792836.65247                  21662448.1714
        49.5004         36.2504
  23509400.1364     -21365.82449    -21022.63746                  23509400.3234
        37.7504         23.7504
  23790205.0264   -3020371.68449  -2343553.22346                  23790204.5654
        43.2504         22.7504
  22057889.5734   -3697643.76249  -2856335.21947                  22057888.5464
        47.5004         33.2504
  20598046.9724    -855350.52049   -662742.18748                  20598045.4524
        50.5004         40.2504
 04  6 28 21 50 29.9990000  0  6G 1G11G14G16G20G25
  22612556.5654   -3074143.18449  -2374538.44547                  22612557.4644
        45.0004         30.7504
  21660126.3004   -1036507.64849   -802348.05547                  21660125.8584
        49.5004         36.0004
  23509385.0424     -21442.73849    -21082.57846                  23509385.7574
        39.2504         22.7504
  23780001.0504   -3073991.77749  -2385335.07046                  23780000.5464
        44.2504         22.5004
  22048179.4724   -3748670.89149  -2896096.60947                  22048178.5344
        48.5004         33.5004
  20596135.0814    -865396.12549   -670569.93448                  20596133.5654
        52.0004         40.0004
 04  6 28 21 50 39.9990000  0  6G 1G11G14G16G20G25
  22604621.9564   -3115839.35249  -2407028.96147                  22604622.7964
        45.2504         30.5004
  21657814.3154   -1048658.07449   -811815.93747                  21657813.5694
        49.2504         35.7504
  23509371.5734     -21515.12349    -21139.05946                  23509372.0774
        40.7504         22.7504
  23769798.5894   -3127607.05949  -2427113.16046                  23769797.8194
        43.7504         22.7504
  22038473.7454   -3799676.66449  -2935841.35947                  22038472.3314
        48.0004         34.2504
  20594232.9874    -875391.73449   -678358.73048                  20594231.4174
        51.5004         40.2504
 04  6 28 21 50 49.9990000  0  6G 1G11G14G16G20G25
  22596691.2064   -3157518.16449  -2439505.94147                  22596691.3124
        44.2504         31.5004
  21655512.5504   -1060753.97749   -821241.33247                  21655511.2764
        49.5004         36.2504
  23509358.5034     -21584.39549    -21193.03546                  23509358.7884
        40.5004         24.7504
  23759596.0814   -3181218.69549  -2468888.43746                  23759595.4994
        42.5004         22.7504
  22028771.3084   -3850662.32449  -2975570.44147                  22028769.9254
        47.5004         34.5004
  20592340.2844    -885338.64849   -686109.57848                  20592338.4914
        51.5004         40.7504
 04  6 28 21 50 59.9990000  0  6G 1G11G14G16G20G25
  22588762.5894   -3199181.22349  -2471970.64547                  22588763.5504
        45.5004         31.2504
  21653220.7694   -1072797.07849   -830625.57447                  21653219.8784
        49.5004         35.7504
  23509345.2764     -21652.04349    -21245.75446                  23509345.8154
        38.7504         25.0004
  23749394.7534   -3234828.20749  -2510662.04346                  23749394.2454
        42.2504         21.7504
  22019072.2064   -3901629.32849  -3015284.96947                  22019070.9684
        47.7504         34.7504
  20590456.4174    -895238.54749   -693823.78548                  20590454.5074
        50.7504         40.5004
 04  6 28 21 51  9.9990000  0  6G 1G11G14G16G20G25
  22580837.3864   -3240827.82049  -2504422.52347                  22580837.9214
        45.0004         31.0004
  21650939.3154   -1084786.65649   -839968.10947                  21650938.3824
        49.5004         35.5004
  23509333.1674     -21717.42649    -21296.71546                  23509333.8824
        38.5004         23.7504
  23739192.8154   -3288434.75849  -2552433.30546                  23739192.3704
        41.7504         21.2504
  22009377.5814   -3952577.04749  -3054984.47747                  22009376.1904
        48.0004         33.7504
  20588581.8864    -905090.75049   -701500.83248                  20588580.1554
        51.0004         40.0004
 04  6 28 21 51 19.9990000  0  6G 1G11G14G16G20G25
  22572915.0504   -3282458.87149  -2536862.29747                  22572915.7304
        44.0004         30.2504
  21648667.7764   -1096723.69949   -849269.70747                  21648666.9724
        49.0004         36.0004
  23509321.1124     -21781.42249    -21346.60946                  23509321.4874
        41.2504         23.7504
  23728991.9094   -3342039.12549  -2594202.91446                  23728991.8784
        40.5004         20.2504
  21999685.7224   -4003506.16449  -3094669.49647                  21999684.5074
        48.5004         33.5004
  20586715.7374    -914896.27349   -709141.50048                  20586714.3664
        51.5004         40.5004
 04  6 28 21 51 29.9990000  0  6G 1G11G14G16G20G25
  22564997.1284   -3324071.18449  -2569287.45347                  22564997.2304
        44.2504         30.0004
  21646406.7304   -1108604.80149   -858527.71547                  21646405.9054
        48.7504         35.2504
  23509309.4174     -21840.82449    -21392.91046                  23509309.5974
        40.7504         23.0004
  23718792.5264   -3395637.93049  -2635968.21146                  23718792.2654
        40.7504         20.0004
  21989998.5034   -4054413.36749  -3134337.42647                  21989997.3434
        48.2504         33.0004
  20584858.9644    -924651.93049   -716743.30948                  20584857.6634
        51.5004         39.7504
 04  6 28 21 51 39.9990000  0  6G 1G11G14G16G20G25
  22557081.2614   -3365666.82849  -2601699.63747                  22557081.7264
        44.0004         30.7504
  21644156.1124   -1120432.41449   -867744.05547                  21644155.2104
        49.2504         36.0004
  23509299.2374     -21897.70749    -21437.28146                  23509299.2454
        38.5004         22.0004
  23708593.8474   -3449233.19149  -2677730.69546                  23708593.9834
        40.5004         20.0004
  21980315.3234   -4105300.65649  -3173989.85547                  21980314.0344
        47.7504         34.0004
  20583011.9174    -934359.82449   -724307.91448                  20583010.4134
        51.5004         41.0004
 04  6 28 21 51 49.9990000  0  6G 1G11G14G16G20G25
  22549169.0894   -3407246.28149  -2634099.19147                  22549169.9524
        45.7504         29.7504
  21641915.5034   -1132207.07849   -876919.12947                  21641914.6754
        49.5004         35.0004
  23509287.9724     -21952.52749    -21480.02046                  23509288.8474
        41.0004         22.7504
  23698395.8004   -3502825.26249  -2719490.71546                  23698395.4174
        41.5004         19.2504
  21970635.2924   -4156168.42249  -3213627.07047                  21970634.0304
        48.7504         33.5004
  20581173.5584    -944020.56649   -731835.76648                  20581171.8514
        51.5004         40.2504
 04  6 28 21 51 59.9990000  0  6G 1G11G14G16G20G25
  22541259.9094   -3448809.45349  -2666486.07047                  22541260.4874
        46.0004         30.5004
  21639684.8314   -1143928.66849   -886052.85547                  21639684.0854
        50.0004         36.5004
  23509278.3234     -22005.14149    -21521.03146                  23509278.4134
        38.7504         24.2504
  23688197.9644   -3556413.90249  -2761248.07846                  23688198.4804
        40.5004         20.0004
  21960959.0584   -4207016.46549  -3253248.91047                  21960957.5194
        48.2504         34.2504
  20579344.2224    -953634.10249   -739326.83648                  20579342.5974
        51.0004         41.0004
 04  6 28 21 52  9.9990000  0  6G 1G11G14G16G20G25
  22533353.8084   -3490356.32449  -2698860.24247                  22533354.0734
        46.2504         31.2504
  21637464.3944   -1155597.22749   -895145.25047                  21637463.5074
        50.5004         36.0004
  23509268.5974     -22055.65249    -21560.40646                  23509268.5074
        39.0004         24.5004
  23678000.2844   -3609998.98449  -2803002.62946                  23678001.7264
        41.0004         20.0004
  21951286.7534   -4257844.77749  -3292855.37547                  21951285.7334
        47.7504         34.0004
  20577523.6834    -963200.52749   -746781.19548                  20577522.1944
        51.7504         40.7504
 04  6 28 21 52 19.9990000  0  6G 1G11G14G16G20G25
  22525450.6674   -3531888.25849  -2731222.76647                  22525451.1444
        46.0004         30.7504
  21635253.7454   -1167214.10949   -904197.36347                  21635252.8234
        49.7504         34.7504
  23509259.6984     -22105.30549    -21599.12946                  23509259.2104
        40.7504         22.2504
  23667803.4874   -3663581.65249  -2844755.30946                  23667805.6984
        41.0004         21.5004
  21941618.1754   -4308654.51649  -3332447.36347                  21941616.7884
        48.0004         33.7504
  20575712.1514    -972721.19949   -754199.89848                  20575710.3864
        52.0004         40.2504
 04  6 28 21 52 29.9990000  0  6G 1G11G14G16G20G25
  22517549.8004   -3573404.84449  -2763573.32447                  22517550.3704
        46.2504         29.7504
  21633053.1594   -1178778.98049   -913208.96147                  21633052.2694
        50.0004         35.0004
  23509250.8234     -22153.77349    -21636.91046                  23509250.0544
        41.0004         22.7504
  23657608.4564   -3717161.50449  -2886505.82846                  23657610.2024
        43.0004         21.7504
  21931952.7374   -4359445.18449  -3372024.48847                  21931951.8584
        48.2504         34.0004
  20573909.0584    -982195.86749   -761582.75848                  20573907.3044
        51.5004         40.2504
 04  6 28 21 52 39.9990000  0  6G 1G11G14G16G20G25
  22509653.1284   -3614904.48449  -2795910.69947                  22509653.5154
        46.5004         30.5004
  21630862.6444   -1190290.34849   -922178.85947                  21630861.6594
        49.5004         35.0004
  23509241.8154     -22199.39549    -21672.46946                  23509241.6404
        40.7504         24.0004
  23647413.4804   -3770736.82049  -2928252.76246                  23647414.7844
        43.2504         22.2504
  21922291.7144   -4410215.15649  -3411585.48847                  21922290.9174
        48.2504         34.0004
  20572115.2924    -991622.88749   -768928.48048                  20572113.6714
        51.5004         39.7504
 04  6 28 21 52 49.9990000  0  6G 1G11G14G16G20G25
  22501758.6984   -3656388.72349  -2828236.06647                  22501759.2304
        46.0004         31.0004
  21628682.1834   -1201749.72349   -931108.26247                  21628681.2414
        49.5004         35.5004
  23509234.0654     -22243.66449    -21706.99646                  23509232.6874
        41.2504         23.2504
  23637219.0344   -3824308.90649  -2969997.22746                  23637221.1944
        43.5004         23.2504
  21912633.9334   -4460965.86749  -3451131.48847                  21912632.9014
        47.5004         34.0004
  20570329.9254   -1001003.79749   -776238.29348                  20570328.3904
        51.2504         40.7504
 04  6 28 21 52 59.9990000  0  6G 1G11G14G16G20G25
  22493867.8864   -3697856.11749  -2860548.30947                  22493867.9764
        46.5004         30.0004
  21626511.6124   -1213155.77349   -939996.09447                  21626510.8704
        48.7504         36.0004
  23509225.3784     -22285.06649    -21739.26246                  23509224.7964
        42.2504         22.7504
  23627025.6514   -3877876.28549  -3011738.00046                  23627027.4054
        43.5004         25.2504
  21902980.5504   -4511695.73449  -3490661.23847                  21902979.7574
        47.7504         34.0004
  20568553.6984   -1010337.33249   -783511.17248                  20568552.6284
        51.5004         40.7504
 04  6 28 21 53  9.9990000  0  6G 1G11G14G16G20G25
  22485979.6834   -3739307.39849  -2892848.00847                  22485980.4404
        46.5004         30.5004
  21624351.1204   -1224509.27749   -948843.00447                  21624350.2454
        49.0004         36.0004
  23509218.2924     -22324.50049    -21770.01646                  23509217.8514
        42.2504         24.5004
  23616832.7144   -3931439.58249  -3053475.58647                  23616835.1204
        43.7504         26.0004
  21893330.5114   -4562405.45349  -3530175.29747                  21893329.9374
        47.0004         34.5004
  20566786.6594   -1019624.23449   -790747.72748                  20566784.9994
        52.0004         41.0004
 04  6 28 21 53 19.9990000  0  6G 1G11G14G16G20G25
  22478094.7304   -3780742.93449  -2925135.42247                  22478095.5264
        46.0004         30.7504
  21622200.2374   -1235810.60249   -957649.24247                  21622199.6124
        49.2504         35.7504
  23509210.5114     -22362.22349    -21799.43046                  23509210.8474
        42.5004         24.5004
  23606641.1364   -3984998.95349  -3095210.12147                  23606642.6554
        44.0004         25.7504
  21883685.0034   -4613095.25049  -3569673.82847                  21883683.9094
        47.0004         34.7504
  20565028.2454   -1028864.95749   -797948.29348                  20565026.7304
        51.5004         41.2504
 04  6 28 21 53 29.9990000  0  6G 1G11G14G16G20G25
  22470213.0974   -3822162.52349  -2957410.41047                  22470213.4484
        46.0004         31.0004
  21620059.8474   -1247059.58249   -966414.68047                  21620059.0814
        48.2504         35.0004
  23509203.9334     -22398.04749    -21827.36346                  23509203.6674
        42.0004         23.0004
  23596450.6444   -4038554.12549  -3136941.37547                  23596451.4914
        44.7504         26.2504
  21874042.6204   -4663764.85249  -3609156.62147                  21874041.8274
        47.2504         34.2504
  20563278.7614   -1038059.32049   -805112.72748                  20563277.2304
        52.0004         40.7504
 04  6 28 21 53 39.9990000  0  6G 1G11G14G16G20G25
  22462334.6204   -3863565.37949  -2989672.35247                  22462334.9294
        45.7504         30.2504
  21617929.3314   -1258255.56249   -975138.82847                  21617928.8554
        48.0004         35.0004
  23509197.6674     -22431.14549    -21853.16046                  23509197.5544
        42.5004         22.7504
  23586259.7924   -4092104.21949  -3178668.68747                  23586261.4094
        44.7504         26.2504
  21864404.3784   -4714413.39849  -3648623.00447                  21864403.2654
        46.0004         33.0004
  20561537.8474   -1047206.53949   -812240.42648                  20561536.5734
        52.0004         40.2504
 04  6 28 21 53 49.9990000  0  6G 1G11G14G16G20G25
  22454458.9094   -3904951.33249  -3021921.12947                  22454459.4874
        45.7504         31.0004
  21615808.5814   -1269398.43749   -983821.59447                  21615807.9174
        48.0004         35.2504
  23509192.1204     -22461.36349    -21876.75446                  23509191.6754
        42.0004         23.0004
  23576070.8154   -4145648.91449  -3220391.78146                  23576071.6754
        43.5004         24.0004
  21854770.3474   -4765040.62149  -3688072.76247                  21854769.4604
        46.5004         33.0004
  20559806.3864   -1056306.55949   -819331.35248                  20559804.6944
        51.2504         40.2504
 04  6 28 21 53 59.9990000  0  6G 1G11G14G16G20G25
  22446586.6984   -3946321.30949  -3054157.46147                  22446586.9374
        45.7504         30.2504
  21613698.4484   -1280489.18049   -992463.75047                  21613697.4874
        47.7504         35.0004
  23509186.6284     -22489.62549    -21898.77346                  23509186.0694
        42.0004         22.5004
  23565882.2224   -4199189.01249  -3262111.30146                  23565883.0074
        42.7504         24.0004
  21845140.0894   -4815647.31649  -3727506.54747                  21845139.1284
        45.5004         32.5004
  20558083.2454   -1065360.32849   -826386.24248                  20558081.9014
        52.0004         40.7504
 04  6 28 21 54  9.9990000  0  6G 1G11G14G16G20G25
  22438717.3624   -3987674.91849  -3086381.03547                  22438717.8864
        46.2504         31.2504
  21611597.9014   -1291527.43749  -1001064.99647                  21611596.8274
        48.2504         35.5004
  23509182.0194     -22515.43749    -21918.92246                  23509180.9404
        43.0004         22.7504
  23555694.9564   -4252723.97749  -3303826.79346                  23555695.8584
        42.7504         24.7504
  21835513.9724   -4866233.03949  -3766923.97747                  21835512.2924
        46.5004         33.2504
  20556369.4254   -1074367.60949   -833404.90648                  20556367.6834
        52.0004         41.0004
 04  6 28 21 54 19.9990000  0  6G 1G11G14G16G20G25
  22430850.1514   -4029014.42249  -3118593.62547                  22430850.7614
        45.5004         30.7504
  21609507.1514   -1302515.55949  -1009627.17647                  21609505.8194
        47.7504         35.5004
  23509177.3234     -22541.14849    -21938.96546                  23509176.0974
        42.7504         23.7504
  23545507.7534   -4306256.01249  -3345540.02746                  23545508.2614
        42.5004         22.5004
  21825891.1984   -4916799.94949  -3806326.75447                  21825889.8044
        45.7504         33.0004
  20554663.6054   -1083330.72349   -840389.15648                  20554662.4564
        51.5004         41.0004
 04  6 28 21 54 29.9990000  0  6G 1G11G14G16G20G25
  22422987.2764   -4070336.28549  -3150792.47747                  22422987.9014
        45.0004         32.0004
  21607426.1204   -1313449.96949  -1018147.50847                  21607425.0774
        47.7504         36.0004
  23509173.7224     -22563.22749    -21956.18446                  23509171.8514
        42.7504         23.0004
  23535322.0034   -4359781.30149  -3387248.00446                  23535323.1364
        42.5004         23.0004
  21816272.9404   -4967344.39549  -3845712.03547                  21816271.6904
        45.7504         33.0004
  20552967.3554   -1092246.18449   -847336.27348                  20552965.7144
        51.7504         41.7504
 04  6 28 21 54 39.9990000  0  6G 1G11G14G16G20G25
  22415126.4484   -4111644.54749  -3182980.71547                  22415127.0034
        45.0004         31.0004
  21605354.8474   -1324334.84049  -1026629.23847                  21605354.0384
        47.2504         36.2504
  23509168.1204     -22585.64849    -21973.66446                  23509167.3394
        42.0004         22.5004
  23525136.8624   -4413303.88749  -3428953.84446                  23525137.8044
        43.0004         24.0004
  21806658.7454   -5017870.33249  -3885082.87547                  21806656.9054
        45.5004         32.5004
  20551279.1754   -1101118.07849   -854249.44148                  20551277.3904
        51.2504         41.0004
 04  6 28 21 54 49.9990000  0  6G 1G11G14G16G20G25
  22407268.7454   -4152937.46149  -3215157.00047                  22407269.2724
        44.7504         31.2504
  21603293.3084   -1335168.53949  -1035071.08647                  21603292.3154
        47.2504         35.0004
  23509164.2064     -22606.75049    -21990.11746                  23509164.1554
        42.2504         22.0004
  23514952.5974   -4466821.89549  -3470656.13346                  23514953.4214
        42.0004         22.7504
  21797047.4804   -5068375.90649  -3924437.85547                  21797045.2844
        45.7504         32.2504
  20549599.3624   -1109944.71949   -861127.33248                  20549597.8194
        52.0004         40.0004
 04  6 28 21 54 59.9990000  0  6G 1G11G14G16G20G25
  22399414.1284   -4194214.51249  -3247320.91447                  22399414.4484
        45.7504         31.2504
  21601241.6514   -1345950.43749  -1043472.57847                  21601240.5584
        47.5004         35.7504
  23509160.9404     -22625.82449    -22005.00446                  23509160.9684
        41.0004         22.7504
  23504769.0344   -4520334.62949  -3512354.31246                  23504770.3274
        41.7504         22.5004
  21787440.4174   -5118860.48049  -3963776.46947                  21787438.7374
        46.0004         32.0004
  20547928.2844   -1118725.70349   -867969.66448                  20547926.7334
        51.7504         40.7504
 04  6 28 21 55  9.9990000  0  6G 1G11G14G16G20G25
  22391561.8474   -4235476.77049  -3279473.31247                  22391562.2924
        46.0004         30.7504
  21599199.6054   -1356681.80149  -1051834.68047                  21599198.7494
        47.0004         35.0004
  23509157.4174     -22644.03949    -22019.21946                  23509156.7764
        41.5004         22.2504
  23494586.8784   -4573843.16449  -3554049.25446                  23494587.7574
        42.0004         22.0004
  21777837.7534   -5169325.10949  -4003099.55147                  21777835.7454
        45.7504         32.0004
  20546265.6124   -1127462.05949   -874777.21948                  20546264.5504
        52.2504         40.0004
 04  6 28 21 55 19.9990000  0  6G 1G11G14G16G20G25
  22383713.4174   -4276722.03949  -3311612.46547                  22383713.5654
        46.0004         31.5004
  21597167.0894   -1367360.39849  -1060155.68047                  21597166.8974
        48.7504         36.0004
  23509154.2224     -22659.21549    -22031.03946                  23509153.5344
        40.5004         22.5004
  23484406.0344   -4627345.03949  -3595739.00046                  23484406.5544
        42.0004         22.7504
  21768238.8474   -5219767.43049  -4042405.23847                  21768236.5934
        46.5004         33.2504
  20544612.3784   -1136151.64849   -881548.32848                  20544610.7494
        51.5004         41.2504
